OBJECT A, 60235

Orbit data source: Space-Track

You're viewing an Uncataloged Satellite

Recently launched and/or uncataloged satellites may have evolving metadata. Metadata may include but not limited to: Owner, Maufacturer, Bus, Motor, and Mission.

OBJECT A, 60235 is a satellite in LEO that was launched on Tue, 09 Jul 2024 UTC via an ARIANE 62 launch vehicle from the French Guiana (FRGUI). Unknown objects in Earth's orbit typically refer to objects detected orbiting the Earth but have not yet been identified or cataloged. These objects could be anything from previously untracked satellites, spent rocket stages, debris from satellite collisions, or even natural meteoroids temporarily captured by Earth's gravity.

Loading next visibility...
Identifier
60235, 2024-128A
Orbit
LEO
Country
Flag of TBDTBD
Related business
None
Manufacturer
Unknown
Mission
Amateur Science
Bus & Motor
Unknown
Mass
Unknown
Launch date (UTC)
2024-07-09 (1 year ago)
Launch vehicle
ARIANE 62
Launch site
French Guiana (FRGUI)
Object type
Unknown
Shape & HBR
Box, 0.1 m
Radar Cross Section
0.035 m², Small (<0.1 m²)

Expand to show TLE details & history
Last TLE update: 8 hours ago

TLE from 8 hours ago
0 OBJECT A
1 60235U 24128A   25300.93059990  .00003288  00000-0  27099-3 0  9998
2 60235  61.9948 318.2893 0064416  82.6051 278.2353 14.99623683 71157
Epoch: 2025-10-27T22:20Z
TLE epoch observation values (Epoch: 2025-10-27T22:20:03.831Z)
Latitude
0.00002°
Longitude
-53.25203°
Altitude
563.7 km
Speed
7.583 km/s
True Right ascension
21h 13m 09s
True Declination
0° 00' 00"
Sunlit
Object was in daylight at epoch
Visualization orbit readout
Latitude
Unknown
Longitude
Unknown
Altitude
Unknown
Speed
Unknown
Apparent Right ascension
Unknown
Apparent Declination
Unknown
Sunlit
N/A
Visualization observer readout
Local Sidereal Time
01:21:39
Azimuth
Unknown
Elevation
Unknown
Doppler factor
Unknown
Orbital elements
Apogee altitude
611.727 km
Perigee altitude
522.251 km
Semi-major axis
6,945.126 km
Eccentricity
0.00644
Inclination
61.9948°
RAAN
318.2893°
Arg. of periapsis
82.6051°
True anomaly
277.50394°
Mean anomaly
278.2353°
Eccentric anomaly
277.8697°
Mean motion
3.74993 °/min
Orbital period
96 mins
BSTAR
0.00027099
Loading maneuver chart data...
Computing Atmospheric mass density...
Loading historical data...
Loading historical data...
Loading historical data...
Loading historical data...
Loading historical data...
Loading historical data...
Loading historical data...

Documentation

Showing up to 5 results
|